Location: Cisewo
(53.3833°N, 14.9000°E)
Time: 11:34:19
(UTC+00:00)

Cosmos 2058 Rocket - Pass Details

Date: 18 April 2021
Orbit: 611 x 638 km, 82.5° (Epoch: 15 May)

Event Time Altitude Azimuth Distance (km) Brightness Sun altitude
Rises 18:53:17 0° 180° (S) 2,869 6.2 -7.1°
Reaches altitude 10° 18:55:31 10° 178° (S) 1,967 5.3 -7.4°
Maximum altitude 18:59:49 64° 97° (E) 683 3.0 -8.0°
Drops below altitude 10° 19:04:09 10° 16° (NNE) 1,982 5.9 -8.5°
Sets 19:06:23 0° 14° (NNE) 2,893 6.8 -8.8°
